Location: Eastview
(35.0756°N, 88.5453°W)
Time: 23:57:32
(UTC+00:00)

Cosmos 2360 Rocket - Pass Details

Date: 22 November 2019
Orbit: 832 x 847 km, 71.0° (Epoch: 10 December)

Event Time Altitude Azimuth Distance (km) Brightness Sun altitude
Exits shadow 12:04:58 - 322° (NW) 3,136 4.6 -6.6°
Reaches altitude 10° 12:06:59 10° 313° (NW) 2,472 4.1 -6.2°
Maximum altitude 12:11:35 26° 258° (WSW) 1,604 3.2 -5.3°
Drops below altitude 10° 12:16:10 10° 204° (SSW) 2,455 4.6 -4.5°
Sets 12:18:57 0° 191° (SSW) 3,383 5.5 -3.9°
